Powrót do katalogu

FLOCK 4Q 26

AktywnyNaukaPO
NORAD 58284·PAYLOAD·🇺🇸 United States

Wystrzelony Nov 11, 2023 z Vandenberg Space Force Base

Loading…

Następne Przeloty (najbliższe 24 godziny)

TLE

NieaktualneSource: Space-Track

Epoka: Sep 2, 2026, 00:00 UTC

1 58284U 23174AE  26245.00021628  .17429963  25254-5  38180-3 0  9999
2 58284  97.3586 342.2178 0007949 277.5642  82.4757 16.46255717157916

Śledź FLOCK 4Q 26 w czasie rzeczywistym z AllMySat

Download on the App Store